Weather History for Red Wing, MN

Change the Weather History Date:

Wednesday, May 13, 2009

  Actual Average Record
Temperature  
Mean Temperature 62 °F -  
Max Temperature 69 °F 66 °F 84 °F (2007)
Min Temperature 55 °F 44 °F 30 °F (2013)
Degree Days  
Heating Degree Days 3    
Growing Degree Days 12 (Base 50)    
Moisture  
Dew Point 55 °F    
Average Humidity 82    
Maximum Humidity 94    
Minimum Humidity 68    
Precipitation  
Precipitation 0.31 in - - ()
Sea Level Pressure  
Sea Level Pressure 29.59 in    
Wind  
Wind Speed 12 mph (South)    
Max Wind Speed 20 mph    
Max Gust Speed 29 mph    
Visibility 9 miles    
Events Rain , Thunderstorm    
Averages and records for this station are not official NWS values.
T = Trace of Precipitation, MM = Missing Value Source: NWS Daily Summary

Daily Weather History Graph

Daily Weather History Graph

Search for Another Location

Airport:

Trip Planner

Search our weather history database for the weather conditions in past years. The results will help you decide how hot, cold, wet, or windy it might be!

Date:

Astronomy

May. 13, 2009 Rise Set
Actual Time 5:44 AM CDT 8:29 PM CDT
Civil Twilight 5:10 AM CDT 9:02 PM CDT
Nautical Twilight 4:28 AM CDT 9:45 PM CDT
Astronomical Twilight 3:38 AM CDT 10:35 PM CDT
Moon 12:12 AM CDT (5/13) 8:50 AM CDT (5/13)
Length of Visible Light 15h 52m
Length of Day
14h 45m
Waning Gibbous, 82% of the Moon is Illuminated
May 13
Waning Gibbous
May 17
Last Quarter
May 24
New
May 30
First Quarter
Jun 7
Full

Hourly Weather History & Observations

Time (CDT) Temp. Dew Point Humidity Pressure Visibility Wind Dir Wind Speed Gust Speed Precip Events Conditions
12:15 AM 59.0 °F 51.8 °F 77% 29.70 in 10.0 mi SSE 16.1 mph 28.8 mph N/A   Scattered Clouds
12:36 AM 59.0 °F 51.8 °F 77% 29.70 in 10.0 mi SSE 19.6 mph 27.6 mph N/A   Scattered Clouds
12:55 AM 57.2 °F 51.8 °F 82% 29.68 in 10.0 mi SSE 16.1 mph 28.8 mph N/A   Mostly Cloudy
1:15 AM 57.2 °F 51.8 °F 82% 29.69 in 7.0 mi SSE 16.1 mph 28.8 mph N/A   Mostly Cloudy
1:36 AM 57.2 °F 51.8 °F 82% 29.68 in 10.0 mi South 19.6 mph 28.8 mph N/A   Mostly Cloudy
1:55 AM 57.2 °F 51.8 °F 82% 29.68 in 5.0 mi South 19.6 mph 25.3 mph N/A Rain Rain
2:15 AM 57.2 °F 51.8 °F 82% 29.68 in 7.0 mi SSE 18.4 mph 26.5 mph N/A Rain Light Rain
2:36 AM 55.4 °F 51.8 °F 88% 29.67 in 5.0 mi SSE 16.1 mph 24.2 mph N/A   Light Drizzle
2:55 AM 55.4 °F 51.8 °F 88% 29.68 in 3.0 mi SSE 16.1 mph 20.7 mph N/A   Drizzle
3:15 AM 55.4 °F 51.8 °F 88% 29.68 in 3.0 mi SSE 11.5 mph 19.6 mph N/A Rain Rain
3:36 AM 55.4 °F 53.6 °F 94% 29.66 in 3.0 mi SSE 11.5 mph 20.7 mph N/A Rain Light Rain
3:56 AM 55.4 °F 51.8 °F 88% 29.64 in 4.0 mi SSE 15.0 mph 19.6 mph N/A   Light Drizzle
4:15 AM 55.4 °F 53.6 °F 94% 29.64 in 7.0 mi SSE 11.5 mph 21.9 mph N/A   Mostly Cloudy
4:36 AM 55.4 °F 53.6 °F 94% 29.64 in 10.0 mi SSE 9.2 mph 21.9 mph N/A   Overcast
4:55 AM 55.4 °F 51.8 °F 88% 29.64 in 10.0 mi South 12.7 mph 18.4 mph N/A   Overcast
5:16 AM 55.4 °F 53.6 °F 94% 29.64 in 7.0 mi South 12.7 mph 18.4 mph N/A   Light Drizzle
5:35 AM 55.4 °F 53.6 °F 94% 29.63 in 7.0 mi South 12.7 mph 18.4 mph N/A   Light Drizzle
5:55 AM 55.4 °F 53.6 °F 94% 29.62 in 7.0 mi SSE 6.9 mph 18.4 mph N/A   Drizzle
6:15 AM 57.2 °F 53.6 °F 88% 29.62 in 10.0 mi South 6.9 mph - N/A   Mostly Cloudy
6:36 AM 57.2 °F 53.6 °F 88% 29.62 in 10.0 mi South 9.2 mph 17.3 mph N/A   Overcast
6:55 AM 57.2 °F 53.6 °F 88% 29.62 in 10.0 mi South 12.7 mph 20.7 mph N/A   Overcast
7:15 AM 57.2 °F 53.6 °F 88% 29.60 in 10.0 mi South 12.7 mph 25.3 mph N/A   Overcast
7:36 AM 57.2 °F 53.6 °F 88% 29.60 in 10.0 mi South 9.2 mph 16.1 mph N/A   Overcast
7:55 AM 57.2 °F 53.6 °F 88% 29.58 in 10.0 mi SSE 6.9 mph - N/A   Overcast
8:16 AM 57.2 °F 53.6 °F 88% 29.58 in 10.0 mi SSE 8.1 mph 17.3 mph N/A   Overcast
8:35 AM 59.0 °F 55.4 °F 88% 29.59 in 10.0 mi South 8.1 mph - N/A   Overcast
8:55 AM 59.0 °F 55.4 °F 88% 29.59 in 10.0 mi SSW 5.8 mph - N/A   Overcast
9:15 AM 60.8 °F 55.4 °F 82% 29.59 in 10.0 mi South 5.8 mph - N/A   Overcast
9:36 AM 60.8 °F 55.4 °F 82% 29.58 in 10.0 mi South 6.9 mph - N/A   Overcast
9:56 AM 60.8 °F 55.4 °F 82% 29.58 in 10.0 mi SSW 8.1 mph - N/A   Overcast
10:15 AM 60.8 °F 55.4 °F 82% 29.57 in 10.0 mi South 8.1 mph - N/A   Mostly Cloudy
10:35 AM 62.6 °F 55.4 °F 77% 29.56 in 10.0 mi SSW 5.8 mph - N/A   Mostly Cloudy
10:55 AM 62.6 °F 57.2 °F 82% 29.56 in 10.0 mi SW 3.5 mph - N/A   Mostly Cloudy
11:15 AM 64.4 °F 57.2 °F 77% 29.56 in 10.0 mi SSW 5.8 mph - N/A   Mostly Cloudy
11:35 AM 64.4 °F 57.2 °F 77% 29.57 in 10.0 mi South 8.1 mph - N/A   Mostly Cloudy
11:56 AM 66.2 °F 57.2 °F 73% 29.56 in 10.0 mi SW 9.2 mph - N/A   Mostly Cloudy
12:16 PM 66.2 °F 57.2 °F 73% 29.56 in 10.0 mi SSW 4.6 mph - N/A   Scattered Clouds
12:35 PM 68.0 °F 57.2 °F 68% 29.56 in 10.0 mi SW 5.8 mph - N/A   Mostly Cloudy
12:56 PM 68.0 °F 57.2 °F 68% 29.56 in 10.0 mi SW 10.4 mph - N/A   Mostly Cloudy
1:15 PM 68.0 °F 57.2 °F 68% 29.55 in 10.0 mi SW 5.8 mph - N/A   Scattered Clouds
1:35 PM 66.2 °F 57.2 °F 73% 29.55 in 10.0 mi South 13.8 mph 18.4 mph N/A   Scattered Clouds
1:55 PM 69.8 °F 59.0 °F 68% 29.55 in 10.0 mi SSW 12.7 mph 16.1 mph N/A   Scattered Clouds
2:15 PM 66.2 °F 59.0 °F 78% 29.55 in 10.0 mi South 8.1 mph 17.3 mph N/A   Scattered Clouds
2:35 PM 66.2 °F 59.0 °F 78% 29.54 in 10.0 mi South 8.1 mph - N/A Rain , Thunderstorm Light Thunderstorms and Rain
2:55 PM 64.4 °F 59.0 °F 83% 29.55 in 7.0 mi SSW 4.6 mph - 0.01 in Rain , Thunderstorm Thunderstorms and Rain
3:15 PM 59.0 °F 57.2 °F 94% 29.56 in 1.0 mi NNW 6.9 mph 25.3 mph 0.29 in Rain Heavy Rain
3:35 PM 60.8 °F 55.4 °F 82% 29.56 in 10.0 mi WNW 5.8 mph - 0.30 in   Scattered Clouds
3:56 PM 60.8 °F 57.2 °F 88% 29.54 in 10.0 mi Calm Calm - N/A Rain Light Rain
4:15 PM 62.6 °F 57.2 °F 82% 29.53 in 10.0 mi NNW 3.5 mph - N/A   Clear
4:35 PM 62.6 °F 55.4 °F 77% 29.51 in 10.0 mi Calm Calm - N/A   Scattered Clouds
4:56 PM 64.4 °F 57.2 °F 77% 29.50 in 10.0 mi WNW 5.8 mph - N/A Thunderstorm Scattered Clouds
5:15 PM 64.4 °F 57.2 °F 77% 29.51 in 10.0 mi West 10.4 mph - N/A   Clear
5:35 PM 64.4 °F 57.2 °F 77% 29.54 in 10.0 mi South 4.6 mph - N/A   Clear
5:56 PM 64.4 °F 57.2 °F 77% 29.52 in 10.0 mi East 4.6 mph - N/A   Clear
6:15 PM 66.2 °F 57.2 °F 73% 29.50 in 10.0 mi Calm Calm - N/A   Clear
6:35 PM 66.2 °F 57.2 °F 73% 29.51 in 10.0 mi SSE 6.9 mph - N/A   Clear
6:56 PM 62.6 °F 57.2 °F 82% 29.53 in 10.0 mi ESE 4.6 mph - N/A   Clear
7:15 PM 62.6 °F 55.4 °F 77% 29.53 in 10.0 mi SE 3.5 mph - N/A   Clear
7:35 PM 62.6 °F 57.2 °F 82% 29.53 in 10.0 mi East 3.5 mph - N/A   Scattered Clouds
7:56 PM 64.4 °F 51.8 °F 64% 29.53 in 10.0 mi WSW 6.9 mph - N/A   Clear
8:15 PM 66.2 °F 39.2 °F 37% 29.54 in 10.0 mi West 19.6 mph 24.2 mph N/A   Clear
8:35 PM 64.4 °F 35.6 °F 34% 29.55 in 10.0 mi WNW 16.1 mph 32.2 mph N/A   Scattered Clouds
8:55 PM 62.6 °F 35.6 °F 37% 29.56 in 10.0 mi WNW 15.0 mph 23.0 mph N/A   Scattered Clouds
9:15 PM 62.6 °F 33.8 °F 34% 29.56 in 10.0 mi WNW 16.1 mph 21.9 mph N/A   Scattered Clouds
9:35 PM 62.6 °F 32.0 °F 32% 29.57 in 10.0 mi WNW 15.0 mph 27.6 mph N/A   Scattered Clouds
9:56 PM 60.8 °F 30.2 °F 31% 29.59 in 10.0 mi WNW 13.8 mph 18.4 mph N/A   Clear
10:15 PM 59.0 °F 30.2 °F 34% 29.60 in 10.0 mi WNW 8.1 mph - N/A   Clear
10:35 PM 57.2 °F 30.2 °F 36% 29.61 in 10.0 mi WNW 11.5 mph 17.3 mph N/A   Clear
10:56 PM 57.2 °F 30.2 °F 36% 29.62 in 10.0 mi WNW 8.1 mph - N/A   Clear
11:15 PM 57.2 °F 32.0 °F 38% 29.63 in 10.0 mi WNW 10.4 mph - N/A   Clear
11:35 PM 55.4 °F 33.8 °F 44% 29.64 in 10.0 mi West 5.8 mph - N/A   Clear
11:55 PM 53.6 °F 33.8 °F 47% 29.64 in 10.0 mi West 6.9 mph - N/A   Clear